Terminal Aerodrome Forecast
Issued by NWS Sterling, VA

Current Version | Previous Version | Graphics & Text | Print | Product List | Glossary On
Versions: 1 2 3 4 5 6 7 8 9 10 11 12 13 14 15 16 17 18 19 20 21 22 23 24 25 26 27
450
FTUS41 KLWX 040853 AAA
TAFDCA
TAF AMD
KDCA 040853Z 0409/0506 20005KT 2SM -DZ BR OVC004
     FM041000 32010KT 6SM BR BKN080
     FM041200 33009G16KT P6SM BKN090=

USA.gov is the U.S. government's official web portal to all federal, state and local government web resources and services.